Regional Weather Roundup
Issued by NWS

Home | Current Version | Previous Version | Text Only | Print | Product List | Glossary On
Versions: 1 2 3 4 5 6 7 8 9 10 11 12 13 14 15 16 17 18 19 20 21 22 23 24 25 26 27 28 29 30 31 32 33 34 35 36 37 38 39 40 41 42 43 44 45 46 47 48 49 50
000
ASHW40 PHFO 300410
RWRHI

WEATHER ROUNDUP FOR HAWAII
NATIONAL WEATHER SERVICE HONOLULU HI
600 PM HST TUE JUL 29 2014

THIS IS AN AUTOMATED REPORT THAT HAS NOT BEEN QUALITY CONTROLLED.

NOTE..."FAIR" INDICATES FEW OR NO CLOUDS BELOW 12,000 FEET WITH NO
SIGNIFICANT WEATHER AND/OR OBSTRUCTIONS TO VISIBILITY.

* - THESE SITES REPORT LIMITED FIELDS

HIZ001>004-300500-
KAUAI-NIIHAU-

CITY           SKY/WX    TMP DP  RH WIND       PRES   REMARKS
LIHUE APT      MOSUNNY   80  70  71 NE12      30.02S
PORT ALLEN*    NOT AVBL
POIPU*         NOT AVBL
PRINCEVILLE*   NOT AVBL
KOKOLE POINT*  NOT AVBL
MOLOAA DAIRY*  NOT AVBL
WAIMEA HTS*    NOT AVBL
PUU OPAE*      NOT AVBL
PUU LUA*       NOT AVBL
MAKAHA RIDGE*  NOT AVBL
$$

HIZ005>011-300500-
OAHU-

CITY           SKY/WX    TMP DP  RH WIND       PRES   REMARKS
HONOLULU       MOSUNNY   82  64  54 NE14G24   29.99S
KALAELOA       SUNNY     83  64  52 E6        30.00R
KANEOHE MCB    MOSUNNY   84  66  54 E7        30.01S
WHEELER FIELD  FAIR      79  65  60 E7        30.02S
BELLOWS*       NOT AVBL
KAHUKU*        NOT AVBL
WHEELER*       NOT AVBL
WAIANAE HARBOR NOT AVBL
DILLINGHAM*      N/A     84  66  54 NE9G16      N/A
KAHUKU TRN*      N/A     79  68  69 E10G20      N/A
KAWAILOA*      NOT AVBL
KII*             N/A     81  72  74 CALM        N/A
MAKUA RANGE*     N/A     84  64  51 E9G21       N/A
OAHU FOREST NW NOT AVBL
SCHOFIELD BRK*   N/A     75  63  64 MISG        N/A
SCHOFIELD S*   NOT AVBL
WAIANAE VLY*   NOT AVBL
KUAOKALA*      NOT AVBL
HONOULIUULI*   NOT AVBL
MOKUOLOE IS*   NOT AVBL
PALEHUA*       NOT AVBL
WAIAWA PHB*    NOT AVBL
$$

HIZ012>013-300500-
MOLOKAI-

CITY           SKY/WX    TMP DP  RH WIND       PRES   REMARKS
MOLOKAI AIRPT  SUNNY     79  68  69 NE9G22    30.01R
KALAUPAPA      NOT AVBL
MAKAPULAPAI*   NOT AVBL
MOLOKAI 1*     NOT AVBL
PUU ALII*      NOT AVBL
$$

HIZ016-300500-
KAHOOLAWE-

CITY           SKY/WX    TMP DP  RH WIND       PRES   REMARKS
KAHOOLAWE*     NOT AVBL
HAKIOAWA*      NOT AVBL
HONOKANAIA*      N/A     83  68  60 NE17G29   29.99S
KANELOA*         N/A     77  68  73 E20G32    30.09S
KEALIALALO*    NOT AVBL
LUA MAKIKA*    NOT AVBL
$$

HIZ014>015-300500-
LANAI-

CITY           SKY/WX    TMP DP  RH WIND       PRES   REMARKS
LANAI CITY     FAIR      77  65  66 NE23G30   30.03S
LANAI 1*       NOT AVBL
$$

HIZ017>028-300500-
MAUI-

CITY           SKY/WX    TMP DP  RH WIND       PRES   REMARKS
KAHULUI        MOSUNNY   82  66  58 NE16G29   29.99S
KAPALUA-W MAUI MOSUNNY   81  66  61 NE17      29.99S
HANA AIRPORT   SUNNY     81  66  61 E6        30.05S
HANA*          NOT AVBL
HALEAKALA SUMM   N/A     52  18  25 E5          N/A
MAALAEA BAY*   NOT AVBL
HALEAKALA*     NOT AVBL
KAUPO GAP*     NOT AVBL
KULA 1*          N/A     61  56  84 NW5         N/A
$$

HIZ023>026-300500-
BIG ISLAND OF HAWAII COAST AND LOWER SLOPES-

CITY           SKY/WX    TMP DP  RH WIND       PRES   REMARKS
KAILUA KONA    PTSUNNY   83  70  64 S7        29.95R
HILO           CLOUDY    80  69  69 NE8       30.01R
HONOKAA*       NOT AVBL
KAWAIHAE MWT*  NOT AVBL
KAWAIHAE*      NOT AVBL
SOUTH POINT*   NOT AVBL
UPOLU AIRPORT* NOT AVBL
KAMUELA*       CLEAR     72  63  73 NE13      30.11S
HAKALAU*         N/A     54  52  94 NE3         N/A
KALOKO-HONOKO* NOT AVBL
PALI 2*          N/A    N/A N/A N/A N18G26      N/A
KEALAKOMO*       N/A     86  66  51 NE17G29     N/A
KAUPULEHU*     NOT AVBL
KAPAPALA*        N/A     74  67  79 SW5G13      N/A
LOWER KAHUKU*  NOT AVBL
PUHE CS*       NOT AVBL
PUHO CS*       NOT AVBL
PTA KEAMUKU*     N/A     70  59  68 NE15G25     N/A
WAIKOLOA*      NOT AVBL
$$

HIZ027>028-300500-
BIG ISLAND OF HAWAII INTERIOR AND SUMMMITS-

CITY           SKY/WX    TMP DP  RH WIND       PRES   REMARKS
BRADSHAW FIELD MOSUNNY   64  48  56 W8G16     30.33R
MK VISITOR CEN NOT AVBL
MAUNA KEA*       N/A     43   5  21 N3          N/A
MAUNA LOA*     NOT AVBL
MAUNA LOA 1*   NOT AVBL
PTA KIPUKA*      N/A     64  55  72 N5G13       N/A
PTA RANGE 17*    N/A     66  52  59 W12G18      N/A
PTA WEST*        N/A     70  57  64 VRB12G18    N/A
NENE CABIN*    NOT AVBL
AHUMOA*        NOT AVBL
PTA PORTABLE*  NOT AVBL
PUU MALI*      NOT AVBL
$$

HIC003-300500-
NORTHWEST ISLANDS-

CITY           SKY/WX    TMP DP  RH WIND       PRES   REMARKS
MIDWAY ISLAND  MOSUNNY   84  73  70 SW10      30.01S HX  91
MIDWAY NOS*    NOT AVBL
FRENCH FRIGATE NOT AVBL
$$

PHZ110>124-180-300500-
BUOY REPORTS

STATION/POSITION TIME  TEMP    WIND        PRES    WAVE   SWELL
                       AIR SEA DIR/SP/G            HT/PER HT/DIR
                 (UTC) (F)     (DEG/KT/KT) (MB)    (FT/S) (FT/D)
BUOY 51001       NOT AVBL
BUOY 51101       NOT AVBL
BUOY 51100       0400   78      70/ 12       N/A
BUOY 51003       0300   81 82   70/ 14/ 17 1014.5F   7/ 9   5
BUOY 51004       0305   79 80   60/ 16/ 19 1014.0    7/ 9   5/100
BARBERS PT BUOY  NOT AVBL
WAIMEA BAY BUOY  0400      80                N/A     2/13   2/310
KAILUA BAY BUOY  0400      81                N/A     5/ 9   2/ 90
LANAI BUOY       0400      81                N/A     3/14   2/210
BARBERS PT 2     0400      80                N/A     4/14   2/200
PAUWELA MAUI     0400      79                N/A     5/ 9   2/100
HILO             NOT AVBL
KANEOHE BAY BUOY 0400      80                N/A     4/ 9
HANALEI KAUAI    NOT AVBL
KAHULUI HARBOR   0400   79 81   30/ 16/ 20 1015.7R
HONOLULU HARBOR  0400   82      60/  7/ 13 1015.6F
KILO NALU        NOT AVBL
HILO HARBOR      0400   79      10/  6/ 12 1015.7R
MOKUOLOE         0400      83              1016.5S
NAWILIWILI       0400      82                N/A
WHOTS BUOY       NOT AVBL
BUOY 51028       NOT AVBL
$$

......................KEY........................................
  SKY/WX - SKY CONDITIONS/PRESENT WEATHER
  TMP    - TEMPERATURE IN FAHRENHEIT
  DWPT   - DEWPOINT IN FAHRENHEIT
  RH     - RELATIVE HUMIDITY IN PERCENT
  WIND   - DIRECTION AND SPEED /MPH FOR ISLANDS...KTS FOR BUOYS/
  PRES   - MEAN SEA LEVEL PRESSURE IN INCHES OF HG
  VSB    - VISIBILITY IN MILES
  HX     - HEAT INDEX
  WCI    - WIND CHILL INDEX
  VRB    - VARIABLE WIND DIRECTION
  N/A    - NOT AVAILABLE



USA.gov is the U.S. government's official web portal to all federal, state and local government web resources and services.